Regional Weather Roundup
Issued by NWS Charleston, SC

Current Version | Previous Version | Graphics & Text | Print | Product List | Glossary On
Versions: 1 2 3 4 5 6 7 8 9 10 11 12 13 14 15 16 17 18 19 20 21 22 23 24 25 26 27 28 29 30 31 32 33 34 35 36 37 38 39 40 41 42 43 44 45 46 47 48 49 50
000 ASUS42 KCHS 290510 RWRCHS REGIONAL WEATHER ROUNDUP NATIONAL WEATHER SERVICE CHARLESTON SC 1200 AM EST MON DEC 29 2014 NOTE: "FAIR" INDICATES FEW OR NO CLOUDS BELOW 12,000 FEET WITH NO SIGNIFICANT WEATHER AND/OR OBSTRUCTIONS TO VISIBILITY. NOT ALL STATIONS ARE QUALITY CONTROLLED BY THE NATIONAL WEATHER SERVICE. USE DATA WITH CAUTION...ESPECIALLY DEWPOINT OBSERVATIONS. SCZ027-030-031-034>040-042>050-290600- ...SOUTHEAST SOUTH CAROLINA... CITY SKY/WX TMP DP RH WIND PRES REMARKS N CHARLESTON PTCLDY 58 57 97 CALM 30.06F FOG WATERFRONT PRK N/A 63 N/A N/A CALM N/A MOUNT PLEASANT MOCLDY 61 61 100 CALM 30.07F FOG PINOPOLIS N/A 64 63 94 CALM 29.99F MONCKS CORNER FOG 59 57 94 CALM 30.05F VSB<1/4 SUMMERVILLE FAIR 59 59 100 SE3 30.06F BEAUFORT MCAS PTCLDY 60 59 96 S3 30.06F BEAUFORT ARPT FAIR 61 61 100 CALM 30.05F FOG HILTON HEAD IS CLEAR 61 61 100 S5 30.07F FOG WALTERBORO FOG 61 N/A N/A CALM 30.05F VSB 1/4 ALLENDALE FOG 59 59 100 CALM 30.04F VSB<1/4 ...SOUTHERN MIDLANDS AND PEE DEE... CITY SKY/WX TMP DP RH WIND PRES REMARKS GEORGETOWN NOT AVBL KINGSTREE NOT AVBL ORANGEBURG CLOUDY 61 58 90 CALM 30.05S BARNWELL CLOUDY 61 61 100 CALM 30.05F AIKEN CLOUDY 59 59 100 CALM 30.08F FOG MANNING MOCLDY 61 N/A N/A CALM 30.06F COLUMBIA CLOUDY 57 56 96 S5 30.04F FOG SUMTER CLOUDY 58 57 97 N2 30.04F FLORENCE CLOUDY 62 59 90 CALM 30.06F MYRTLE BEACH CLOUDY 61 55 82 CALM 30.07F N MYRTLE BEACH PTCLDY 57 56 96 CALM 30.06F FOG $$ GAZ063-065-086>088-099>101-113>116-118-119-134>141-150-290600- ...SOUTHEAST GEORGIA... CITY SKY/WX TMP DP RH WIND PRES REMARKS SAVANNAH ARPT CLEAR 65 61 87 S7 30.06F HUNTER AAF CLEAR 61 61 100 SE3 30.04F FORT STEWART CLEAR 64 61 88 S5 30.04F FOG STATESBORO CLOUDY 56 56 100 CALM 30.05S SYLVANIA MOCLDY 58 58 100 CALM 30.06S FOG CLAXTON FAIR 61 61 100 CALM 30.06R FOG ...CSRA...CENTRAL AND FAR SOUTHEAST GEORGIA... CITY SKY/WX TMP DP RH WIND PRES REMARKS THOMSON CLOUDY 60 60 100 CALM 30.09S VSB 1/2 AUGUSTA-BUSH CLOUDY 58 58 100 CALM 30.04F AUGUSTA-DANIEL CLOUDY 62 60 93 CALM 30.04F SWAINSBORO FAIR N/A N/A N/A CALM 30.05F HAZE VIDALIA CLEAR 63 63 100 SW5 30.06S EASTMAN FAIR 64 64 100 S5 30.07S HAZLEHURST FAIR 64 64 99 S3 30.05S ALMA FAIR 63 60 90 S6 30.06F WAYCROSS CLEAR 65 64 97 SW6 30.07S JESUP FAIR 64 63 94 SW3 30.07F BAXLEY FAIR 63 61 94 SW3 30.06R BRUNSWICK PTCLDY 61 59 94 S3 30.09F SAINT SIMONS MOCLDY 65 62 90 S3 30.09S $$ SCZ027-028-034-036>038-045-046-048>050-GAZ119-141-290600- ...LAKE AND SUPPLEMENTAL COASTAL OBSERVATIONS... STATION/POSITION TIME TEMP WIND PRES WAVE SWELL AIR SEA DIR/SP/G HT/PER HT/PER/DIR (UTC) (F) (DEG/KT/KT) (MB) (FT/S) (FT/S/D) UPR LAKE MARION NOT AVBL WINYAH BAY 0400 64 CALM 1018.0S LAKE MURRAY 0400 58 CALM / 1 1017.3F ACE BASIN NERRS 0400 60 CALM 1018.0S FORT PULASKI 0500 59 N/A SAPELO ISLAND 0400 62 170/ 7 1019.0S $$ ANZ835-935-AMZ111-154-330-350-352-354-370-450-454-472-290600- ...C-MAN AND BUOY OBSERVATIONS... STATION/POSITION TIME TEMP WIND PRES WAVE SWELL AIR SEA DIR/SP/G HT/PER HT/PER/DIR (UTC) (F) (DEG/KT/KT) (MB) (FT/S) (FT/S/D) BUOY 41004 0500 73 73 210/ 12/ 16 1017.7F 3/14 2/14 BUOY 41008 0500 62 59 200/ 8/ 10 1018.5F 3/14 2/ 70/14 FOLLY BEACH CMAN 0400 61 220/ 6/ 8 1018.9F CAPERS NEARSHORE 0400 59 230/ 6/ 8 N/A FRIPP NEARSHORE NOT AVBL STATION/POSITION TIME TEMP WIND PRES WAVE SWELL AIR SEA DIR/SP/G HT/PER HT/PER/DIR (UTC) (F) (DEG/KT/KT) (MB) (FT/S) (FT/S/D) 5E ST. MARYS GA 0500 61 N/A 2/14 2/ 90/14 FRYING PAN BUOY 0500 68 68 260/ 8/ 10 1019.0F 3/14 3/130/14 BUOY 41025 0500 64 1017.6F 3/13 CAPE LOOKOUT NC 0400 61 240/ 6/ 7 1017.9F BUOY 41002 0415 74 74 210/ 17/ 21 1020.1 4/13 3/ 90/13 BUOY 41010 0500 76 77 190/ 8/ 10 1020.8F 4/14 5/ 90/14 ST AUGUSTINE FL 0500 65 200/ 3/ 3 1019.9F $$

USA.gov is the U.S. government's official web portal to all federal, state and local government web resources and services.